TimeCDT,TemperatureF,Dew PointF,Humidity,Sea Level PressureIn,VisibilityMPH,Wind Direction,Wind SpeedMPH,Gust SpeedMPH,PrecipitationIn,Events,Conditions,WindDirDegrees,DateUTC
12:41 AM,78.8,57.2,47,29.87,6.0,WNW,28.8,44.9,N/A,,Haze,290,2013-06-22 05:41:00
12:56 AM,78.1,55.9,46,29.82,10.0,WNW,29.9,35.7,N/A,Thunderstorm,Overcast,290,2013-06-22 05:56:00
1:56 AM,68.0,64.0,87,29.88,10.0,NNW,12.7,18.4,0.01,,Mostly Cloudy,340,2013-06-22 06:56:00
2:31 AM,68.0,64.4,88,29.92,10.0,North,10.4,-,0.02,Rain-Thunderstorm,Light Rain,350,2013-06-22 07:31:00
2:46 AM,66.2,64.4,94,29.88,9.0,North,9.2,17.3,0.03,Rain,Light Rain,360,2013-06-22 07:46:00
2:56 AM,66.9,64.0,90,29.85,10.0,NNE,8.1,-,0.03,Rain,Light Rain,30,2013-06-22 07:56:00
3:31 AM,66.2,62.6,88,29.85,10.0,ENE,6.9,-,0.00,Thunderstorm,Scattered Clouds,60,2013-06-22 08:31:00
3:46 AM,66.2,62.6,88,29.88,10.0,Calm,Calm,-,0.00,,Scattered Clouds,0,2013-06-22 08:46:00
3:56 AM,66.9,64.0,90,29.88,10.0,South,4.6,-,0.00,Thunderstorm,Mostly Cloudy,180,2013-06-22 08:56:00
4:56 AM,66.0,64.0,93,29.89,4.0,ESE,10.4,-,0.17,Rain-Thunderstorm,Thunderstorms and Rain,120,2013-06-22 09:56:00
5:28 AM,66.2,64.4,94,29.95,10.0,Calm,Calm,-,0.13,Rain-Thunderstorm,Light Rain,0,2013-06-22 10:28:00
5:56 AM,66.0,64.0,93,29.95,8.0,NW,10.4,-,0.14,Rain-Thunderstorm,Light Rain,320,2013-06-22 10:56:00
6:11 AM,66.2,64.4,94,29.99,8.0,North,4.6,-,0.01,Rain-Thunderstorm,Light Rain,360,2013-06-22 11:11:00
6:56 AM,64.9,64.0,97,29.96,6.0,East,8.1,-,0.11,Rain-Thunderstorm,Light Thunderstorms and Rain,100,2013-06-22 11:56:00
7:20 AM,64.4,64.4,100,29.93,7.0,East,19.6,-,0.02,Rain,Light Rain,80,2013-06-22 12:20:00
7:40 AM,66.2,64.4,94,29.92,8.0,SE,23.0,31.1,0.05,Rain-Thunderstorm,Light Thunderstorms and Rain,130,2013-06-22 12:40:00
7:49 AM,66.2,64.4,94,29.89,10.0,ESE,20.7,38.0,0.05,Rain,Light Rain,110,2013-06-22 12:49:00
7:56 AM,64.9,64.0,97,29.83,10.0,ESE,19.6,38.0,0.05,Rain,Light Rain,110,2013-06-22 12:56:00
8:56 AM,66.0,63.0,90,29.79,10.0,ESE,20.7,31.1,0.00,,Clear,120,2013-06-22 13:56:00
9:56 AM,68.0,63.0,84,29.79,10.0,SE,26.5,34.5,N/A,,Clear,140,2013-06-22 14:56:00
10:56 AM,73.0,62.1,68,29.79,10.0,SSE,27.6,39.1,N/A,,Clear,150,2013-06-22 15:56:00
11:56 AM,75.0,64.0,69,29.85,10.0,ESE,4.6,-,N/A,,Clear,120,2013-06-22 16:56:00
12:56 PM,78.1,66.0,66,29.87,10.0,SE,9.2,-,N/A,,Clear,130,2013-06-22 17:56:00
1:56 PM,80.1,68.0,67,29.85,10.0,ESE,8.1,-,N/A,,Clear,110,2013-06-22 18:56:00
2:56 PM,82.9,68.0,60,29.83,10.0,ESE,15.0,19.6,N/A,,Partly Cloudy,120,2013-06-22 19:56:00
3:56 PM,84.0,68.0,58,29.81,10.0,SE,13.8,-,N/A,,Mostly Cloudy,130,2013-06-22 20:56:00
4:56 PM,84.0,71.1,65,29.78,10.0,ESE,10.4,-,N/A,,Mostly Cloudy,110,2013-06-22 21:56:00
5:56 PM,80.1,71.1,74,29.76,10.0,ENE,12.7,-,N/A,,Mostly Cloudy,70,2013-06-22 22:56:00
6:56 PM,78.1,70.0,76,29.74,10.0,ENE,10.4,-,N/A,,Mostly Cloudy,70,2013-06-22 23:56:00
7:56 PM,77.0,70.0,79,29.73,10.0,East,11.5,-,N/A,,Overcast,80,2013-06-23 00:56:00
8:56 PM,75.9,70.0,82,29.72,10.0,East,10.4,-,N/A,,Partly Cloudy,100,2013-06-23 01:56:00
9:56 PM,75.9,70.0,82,29.72,10.0,ESE,8.1,-,N/A,,Clear,120,2013-06-23 02:56:00
10:56 PM,80.1,68.0,67,29.71,10.0,SSE,18.4,26.5,N/A,,Clear,150,2013-06-23 03:56:00
11:56 PM,79.0,66.9,66,29.65,10.0,SSE,18.4,32.2,N/A,,Clear,150,2013-06-23 04:56:00